This demonstration page uses our WeatherBlox Daily Observations layout. Learn more.

Left ArrowRight Arrow

Hourly Observations for February 11, 2016

Temp ( °F °C ) Dew Point ( °F °C ) Humidity (%) Winds ( mph kmh ) Pressure ( in mb ) Visibility ( mi km ) Precip ( " mm )
12:58 am 00:58 Mostly Clear 19 -7 16 -9 86 86 NE 8 13 30.22 1024 10 16 0.00 0.00
1:19 am 01:19 Mostly Cloudy 19 -7 16 -9 86 86 NE 9 15 30.27 1025 10 16 0.00 0.00
1:58 am 01:58 Cloudy 19 -7.4 14 -9.8 83 83 NNE 10 17 30.26 1025 10 16 0.00 0.00
2:58 am 02:58 Cloudy 18 -7.8 14 -10.2 83 83 N 9 15 30.30 1026 10 16 0.00 0.00
3:30 am 03:30 Partly Cloudy 16 -9 12 -11 86 86 NE 12 19 30.33 1027 10 16 0.00 0.00
3:52 am 03:52 Mostly Cloudy 16 -9 12 -11 86 86 NE 10 17 30.33 1027 10 16 0.00 0.00
3:58 am 03:58 Mostly Cloudy 16 -8.8 11 -11.5 81 81 NE 10 17 30.28 1025 10 16 0.00 0.00
4:58 am 04:58 Cloudy 15 -9.3 9 -12.6 77 77 NNE 10 17 30.31 1026 10 16 0.00 0.00
5:16 am 05:16 Cloudy 16 -9 9 -13 73 73 NNE 8 13 30.36 1028 10 16 0.00 0.00
5:58 am 05:58 Mostly Cloudy 14 -9.8 7 -13.7 73 73 NE 8 13 30.35 1028 10 16 0.00 0.00
6:58 am 06:58 Cloudy 15 -9.6 6 -14.2 69 69 ENE 6 9 30.36 1028 10 16 0.00 0.00
7:58 am 07:58 Cloudy 15 -9.2 6 -14.6 65 65 NE 6 9 30.37 1029 10 16 0.00 0.00
8:58 am 08:58 Cloudy 16 -8.7 6 -14.4 64 64 E 6 9 30.36 1028 10 16 0.00 0.00
9:58 am 09:58 Cloudy 18 -7.8 7 -14.1 61 61 ESE 6 9 30.37 1029 10 16 0.00 0.00
10:58 am 10:58 Cloudy 19 -7 7 -13.9 58 58 SE 7 11 30.37 1029 10 16 0.00 0.00
11:58 am 11:58 Cloudy 21 -6.3 9 -12.6 61 61 ESE 7 11 30.35 1028 10 16 0.00 0.00
12:21 pm 12:21 Cloudy 21 -6 10 -12 63 63 SE 8 13 30.36 1028 10 16 0.00 0.00
12:58 pm 12:58 Cloudy 23 -5.1 12 -11.2 63 63 SE 9 15 30.31 1027 10 16 0.00 0.00
1:12 pm 13:12 Cloudy with Light Snow 23 -5 12 -11 63 63 SE 7 11 30.33 1027 10 16 0.00 0.00
1:31 pm 13:31 Mostly Cloudy with Light Snow 23 -5 14 -10 68 68 SE 6 9 30.33 1027 6 10 0.00 0.00
1:33 pm 13:33 Mostly Cloudy with Light Snow 25 -4 14 -10 63 63 ESE 6 9 30.30 1026 3 5 0.00 0.00
1:47 pm 13:47 Mostly Cloudy with Light Snow 25 -4 16 -9 69 69 SE 8 13 30.30 1026 6 10 0.00 0.00
1:53 pm 13:53 Mostly Cloudy with Light Snow 25 -4 16 -9 69 69 ESE 8 13 30.30 1026 7 11 0.00 0.00
1:58 pm 13:58 Cloudy with Light Snow 25 -4 16 -8.8 70 70 ESE 8 13 30.26 1025 6 10 0.00 0.03
2:58 pm 14:58 Partly Cloudy with Isolated Snow Showers 28 -2.3 20 -6.8 72 72 SE 7 11 30.24 1024 9 14 0.00 0.03
3:30 pm 15:30 Mostly Cloudy 28 -2 19 -7 69 69 SSE 7 11 30.21 1023 10 16 0.00 0.00
3:58 pm 15:58 Mostly Cloudy 30 -1.1 20 -6.6 67 67 ESE 6 9 30.23 1024 10 16 0.00 0.03
4:58 pm 16:58 Mostly Cloudy 30 -0.9 21 -6.1 68 68 SE 7 11 30.23 1024 10 16 0.00 0.00
5:00 pm 17:00 Mostly Cloudy 32 0 21 -6 64 64 SE 7 11 30.24 1024 10 16 0.00 0.00
5:58 pm 17:58 Cloudy 30 -1 21 -5.9 70 70 SSE 6 9 30.23 1024 10 16 0.00 0.00
6:58 pm 18:58 Cloudy 30 -0.9 22 -5.8 70 70 SSW 1 2 30.26 1025 10 16 0.00 0.00
7:58 pm 19:58 Cloudy 30 -1 22 -5.3 73 73 WSW 2 4 30.25 1024 10 16 0.00 0.00
8:21 pm 20:21 Cloudy with Light Wintry Mix 30 -1 23 -5 75 75 W 3 6 30.24 1024 10 16 0.00 0.00
8:32 pm 20:32 Cloudy 30 -1 23 -5 75 75 W 6 9 30.24 1024 10 16 0.00 0.00
8:40 pm 20:40 Cloudy 30 -1 23 -5 75 75 NW 3 6 30.24 1024 10 16 0.00 0.00
8:58 pm 20:58 Cloudy 28 -2.1 23 -5.2 80 80 NE 7 11 30.25 1024 10 16 0.00 0.03
9:03 pm 21:03 Cloudy with Light Wintry Mix 28 -2 23 -5 80 80 NE 7 11 30.24 1024 10 16 0.00 0.00
9:08 pm 21:08 Cloudy 28 -2 21 -6 74 74 NNE 6 9 30.24 1024 10 16 0.00 0.00
9:14 pm 21:14 Cloudy 28 -2 21 -6 74 74 NE 7 11 30.24 1024 10 16 0.00 0.00
9:29 pm 21:29 Cloudy 27 -3 21 -6 80 80 NNE 9 15 30.24 1024 10 16 0.00 0.00
9:58 pm 21:58 Cloudy 26 -3.1 21 -6 81 81 NNE 7 11 30.26 1025 10 16 0.00 0.03
10:58 pm 22:58 Cloudy 26 -3.4 20 -6.5 79 79 NNE 7 11 30.27 1025 10 16 0.00 0.00
11:08 pm 23:08 Cloudy 27 -3 21 -6 80 80 N 5 7 30.27 1025 10 16 0.00 0.00
11:58 pm 23:58 Cloudy 26 -3.5 20 -6.4 81 81 NNE 3 6 30.28 1025 10 16 0.00 0.00

Powered by AerisWeather